History for IHAMILTO3

Tucker's Town, Hamilton Parish, Hamilton — Current Conditions
Daily Summary for November 12, 2018
  Current: High: Low: Average:
Temperature: 69.0°F 77.0°F 68.0°F 72.5°F
Dew Point: 60.0°F 69.0°F 60.0°F 65.7°F
Humidity: 75% 97% 75% 86%
Wind Speed: 13.0mph 24.0mph - 9.1mph
Wind Gust: 15.0mph 26.0mph - -
Wind: South - - North
Pressure: 30.35in 30.36in 30.12in -
Precipitation: 0.41in      
Solar Radiation: 0 watts/m^2      
Statistics for the rest of the month
    High: Low: Average:
Temperature:   85.0°F 63.0°F 75.8°F
Dew Point:   80.0°F 51.0°F 67.8°F
Humidity:   99.0% 43.0% 80.2%
Wind Speed:   29.0mph from the South - 9.2mph
Wind Gust:   29.0mph from the South - -
Wind:   - - SE
Pressure:   30.36in 29.97in -
Precipitation:   0.59in    
IHAMILTO3 Weather Graph
Tabular Data for November 12, 2018
Time Temp. Dew Point Pressure Wind Gust Humidity Rainfall Solar Radiation
00:04 72.0°F 69.0°F 30.13in 15.0mph 91% 0.00in 0.00 watts/m^2
00:09 72.0°F 69.0°F 30.13in 12.0mph 91% 0.00in 0.00 watts/m^2
00:14 72.0°F 69.0°F 30.12in 14.0mph 91% 0.00in 0.00 watts/m^2
00:19 72.0°F 69.0°F 30.13in 14.0mph 91% 0.00in 0.00 watts/m^2
00:24 72.0°F 69.0°F 30.13in 16.0mph 91% 0.00in 0.00 watts/m^2
00:29 72.0°F 69.0°F 30.12in 11.0mph 91% 0.00in 0.00 watts/m^2
00:34 72.0°F 69.0°F 30.13in 11.0mph 91% 0.00in 0.00 watts/m^2
00:39 72.0°F 69.0°F 30.13in 11.0mph 91% 0.00in 0.00 watts/m^2
00:44 72.0°F 69.0°F 30.13in 15.0mph 91% 0.00in 0.00 watts/m^2
00:49 72.0°F 69.0°F 30.13in 18.0mph 92% 0.06in 0.00 watts/m^2
00:54 72.0°F 69.0°F 30.13in 15.0mph 92% 0.24in 0.00 watts/m^2
00:59 71.0°F 68.0°F 30.13in 16.0mph 92% 0.30in 0.00 watts/m^2
01:04 71.0°F 68.0°F 30.13in 13.0mph 92% 0.24in 0.00 watts/m^2
01:09 71.0°F 69.0°F 30.13in 15.0mph 93% 0.24in 0.00 watts/m^2
01:14 71.0°F 69.0°F 30.12in 17.0mph 93% 0.24in 0.00 watts/m^2
01:19 71.0°F 69.0°F 30.12in 17.0mph 93% 0.18in 0.00 watts/m^2
01:24 71.0°F 69.0°F 30.12in 15.0mph 94% 0.06in 0.00 watts/m^2
01:29 71.0°F 69.0°F 30.13in 13.0mph 94% 0.06in 0.00 watts/m^2
01:34 70.0°F 68.0°F 30.13in 14.0mph 94% 0.06in 0.00 watts/m^2
01:39 70.0°F 68.0°F 30.13in 17.0mph 94% 0.00in 0.00 watts/m^2
01:44 70.0°F 68.0°F 30.13in 14.0mph 95% 0.00in 0.00 watts/m^2
01:49 70.0°F 68.0°F 30.13in 20.0mph 95% 0.06in 0.00 watts/m^2
01:54 70.0°F 68.0°F 30.13in 17.0mph 95% 0.06in 0.00 watts/m^2
01:59 70.0°F 68.0°F 30.13in 20.0mph 95% 0.00in 0.00 watts/m^2
02:04 70.0°F 68.0°F 30.14in 19.0mph 95% 0.06in 0.00 watts/m^2
02:09 70.0°F 69.0°F 30.14in 18.0mph 96% 0.18in 0.00 watts/m^2
02:14 70.0°F 69.0°F 30.13in 17.0mph 96% 0.24in 0.00 watts/m^2
02:19 70.0°F 69.0°F 30.13in 17.0mph 96% 0.30in 0.00 watts/m^2
02:24 70.0°F 69.0°F 30.13in 16.0mph 96% 0.36in 0.00 watts/m^2
02:29 70.0°F 69.0°F 30.13in 16.0mph 96% 0.30in 0.00 watts/m^2
02:34 70.0°F 69.0°F 30.14in 11.0mph 96% 0.18in 0.00 watts/m^2
02:39 70.0°F 69.0°F 30.14in 14.0mph 96% 0.12in 0.00 watts/m^2
02:44 70.0°F 69.0°F 30.13in 18.0mph 96% 0.12in 0.00 watts/m^2
02:49 70.0°F 69.0°F 30.13in 19.0mph 97% 0.12in 0.00 watts/m^2
02:54 70.0°F 69.0°F 30.13in 20.0mph 97% 0.06in 0.00 watts/m^2
02:59 70.0°F 69.0°F 30.13in 20.0mph 97% 0.00in 0.00 watts/m^2
03:04 70.0°F 69.0°F 30.13in 23.0mph 97% 0.06in 0.00 watts/m^2
03:09 70.0°F 69.0°F 30.13in 19.0mph 97% 0.12in 0.00 watts/m^2
03:14 70.0°F 69.0°F 30.13in 19.0mph 97% 0.06in 0.00 watts/m^2
03:19 70.0°F 69.0°F 30.13in 21.0mph 97% 0.00in 0.00 watts/m^2
03:24 70.0°F 69.0°F 30.14in 21.0mph 97% 0.00in 0.00 watts/m^2
03:29 70.0°F 69.0°F 30.14in 15.0mph 97% 0.00in 0.00 watts/m^2
03:34 69.0°F 68.0°F 30.14in 20.0mph 97% 0.00in 0.00 watts/m^2
03:39 69.0°F 68.0°F 30.14in 16.0mph 97% 0.00in 0.00 watts/m^2
03:44 70.0°F 69.0°F 30.14in 19.0mph 97% 0.00in 0.00 watts/m^2
03:49 70.0°F 69.0°F 30.14in 18.0mph 97% 0.00in 0.00 watts/m^2
03:54 69.0°F 68.0°F 30.14in 17.0mph 97% 0.00in 0.00 watts/m^2
03:59 69.0°F 68.0°F 30.14in 22.0mph 97% 0.00in 0.00 watts/m^2
04:04 70.0°F 69.0°F 30.14in 25.0mph 97% 0.00in 0.00 watts/m^2
04:09 69.0°F 68.0°F 30.14in 18.0mph 97% 0.00in 0.00 watts/m^2
04:14 70.0°F 69.0°F 30.14in 20.0mph 97% 0.00in 0.00 watts/m^2
04:19 70.0°F 69.0°F 30.14in 22.0mph 97% 0.00in 0.00 watts/m^2
04:24 70.0°F 69.0°F 30.15in 17.0mph 97% 0.00in 0.00 watts/m^2
04:29 70.0°F 69.0°F 30.15in 21.0mph 97% 0.00in 0.00 watts/m^2
04:34 70.0°F 69.0°F 30.15in 17.0mph 97% 0.00in 0.00 watts/m^2
04:39 70.0°F 69.0°F 30.15in 20.0mph 97% 0.00in 0.00 watts/m^2
04:43 70.0°F 69.0°F 30.15in 22.0mph 97% 0.00in 0.00 watts/m^2
04:49 69.0°F 68.0°F 30.16in 21.0mph 97% 0.00in 0.00 watts/m^2
04:54 69.0°F 68.0°F 30.16in 19.0mph 97% 0.00in 0.00 watts/m^2
04:59 69.0°F 67.0°F 30.16in 21.0mph 96% 0.06in 0.00 watts/m^2
05:04 69.0°F 67.0°F 30.16in 20.0mph 96% 0.06in 0.00 watts/m^2
05:09 69.0°F 68.0°F 30.16in 25.0mph 97% 0.06in 0.00 watts/m^2
05:14 69.0°F 68.0°F 30.17in 23.0mph 97% 0.12in 0.00 watts/m^2
05:19 69.0°F 68.0°F 30.17in 24.0mph 97% 0.06in 0.00 watts/m^2
05:24 69.0°F 68.0°F 30.17in 20.0mph 97% 0.00in 0.00 watts/m^2
05:29 68.0°F 67.0°F 30.18in 24.0mph 97% 0.00in 0.00 watts/m^2
05:34 68.0°F 67.0°F 30.18in 23.0mph 97% 0.00in 0.00 watts/m^2
05:39 68.0°F 67.0°F 30.19in 24.0mph 97% 0.00in 0.00 watts/m^2
05:44 68.0°F 67.0°F 30.19in 25.0mph 97% 0.00in 0.00 watts/m^2
05:49 68.0°F 67.0°F 30.18in 25.0mph 97% 0.00in 0.00 watts/m^2
05:54 68.0°F 67.0°F 30.19in 20.0mph 97% 0.00in 0.00 watts/m^2
05:59 68.0°F 67.0°F 30.18in 17.0mph 97% 0.00in 0.00 watts/m^2
06:04 68.0°F 67.0°F 30.19in 22.0mph 97% 0.00in 0.00 watts/m^2
06:09 68.0°F 67.0°F 30.19in 22.0mph 97% 0.00in 0.00 watts/m^2
06:14 68.0°F 67.0°F 30.19in 19.0mph 97% 0.00in 0.00 watts/m^2
06:18 68.0°F 67.0°F 30.19in 21.0mph 97% 0.00in 0.00 watts/m^2
06:24 68.0°F 67.0°F 30.20in 21.0mph 97% 0.00in 0.00 watts/m^2
06:29 68.0°F 67.0°F 30.19in 24.0mph 97% 0.00in 0.00 watts/m^2
06:34 68.0°F 67.0°F 30.20in 24.0mph 97% 0.00in 0.00 watts/m^2
06:39 68.0°F 67.0°F 30.20in 21.0mph 97% 0.00in 0.00 watts/m^2
06:44 68.0°F 67.0°F 30.21in 21.0mph 97% 0.00in 0.00 watts/m^2
06:49 68.0°F 67.0°F 30.21in 24.0mph 97% 0.00in 0.00 watts/m^2
06:54 68.0°F 66.0°F 30.21in 25.0mph 96% 0.00in 0.00 watts/m^2
06:59 68.0°F 66.0°F 30.21in 24.0mph 96% 0.00in 10.00 watts/m^2
07:04 68.0°F 66.0°F 30.22in 26.0mph 96% 0.00in 0.00 watts/m^2
07:09 68.0°F 66.0°F 30.22in 22.0mph 96% 0.00in 10.00 watts/m^2
07:14 68.0°F 66.0°F 30.22in 22.0mph 96% 0.00in 10.00 watts/m^2
07:19 68.0°F 66.0°F 30.22in 19.0mph 96% 0.00in 10.00 watts/m^2
07:24 68.0°F 66.0°F 30.22in 18.0mph 96% 0.00in 20.00 watts/m^2
07:29 68.0°F 66.0°F 30.23in 22.0mph 96% 0.00in 10.00 watts/m^2
07:34 68.0°F 66.0°F 30.24in 22.0mph 95% 0.00in 20.00 watts/m^2
07:39 68.0°F 66.0°F 30.24in 24.0mph 95% 0.00in 20.00 watts/m^2
07:44 68.0°F 66.0°F 30.24in 18.0mph 95% 0.00in 20.00 watts/m^2
07:49 68.0°F 66.0°F 30.24in 22.0mph 95% 0.00in 40.00 watts/m^2
07:54 68.0°F 66.0°F 30.24in 20.0mph 94% 0.00in 50.00 watts/m^2
07:59 68.0°F 66.0°F 30.24in 18.0mph 94% 0.00in 60.00 watts/m^2
08:04 68.0°F 66.0°F 30.24in 23.0mph 94% 0.00in 100.00 watts/m^2
08:09 69.0°F 67.0°F 30.24in 15.0mph 94% 0.00in 110.00 watts/m^2
08:14 69.0°F 67.0°F 30.24in 18.0mph 94% 0.00in 90.00 watts/m^2
08:19 69.0°F 67.0°F 30.24in 19.0mph 94% 0.00in 90.00 watts/m^2
08:24 69.0°F 66.0°F 30.24in 20.0mph 93% 0.00in 80.00 watts/m^2
08:29 69.0°F 66.0°F 30.24in 17.0mph 93% 0.00in 100.00 watts/m^2
08:34 69.0°F 66.0°F 30.25in 18.0mph 92% 0.00in 180.00 watts/m^2
08:39 70.0°F 67.0°F 30.25in 18.0mph 92% 0.00in 380.00 watts/m^2
08:44 70.0°F 67.0°F 30.24in 16.0mph 92% 0.00in 180.00 watts/m^2
08:49 71.0°F 68.0°F 30.25in 19.0mph 91% 0.00in 180.00 watts/m^2
08:54 71.0°F 67.0°F 30.25in 17.0mph 89% 0.00in 180.00 watts/m^2
08:59 71.0°F 67.0°F 30.26in 17.0mph 88% 0.00in 110.00 watts/m^2
09:04 71.0°F 66.0°F 30.26in 18.0mph 87% 0.00in 70.00 watts/m^2
09:09 71.0°F 66.0°F 30.26in 21.0mph 87% 0.00in 40.00 watts/m^2
09:14 71.0°F 67.0°F 30.27in 24.0mph 88% 0.00in 40.00 watts/m^2
09:19 70.0°F 66.0°F 30.27in 19.0mph 88% 0.00in 60.00 watts/m^2
09:24 70.0°F 66.0°F 30.27in 20.0mph 89% 0.12in 60.00 watts/m^2
09:29 69.0°F 66.0°F 30.27in 18.0mph 90% 0.18in 70.00 watts/m^2
09:34 69.0°F 66.0°F 30.27in 19.0mph 91% 0.12in 90.00 watts/m^2
09:39 69.0°F 66.0°F 30.27in 19.0mph 92% 0.06in 130.00 watts/m^2
09:44 69.0°F 66.0°F 30.28in 16.0mph 92% 0.00in 120.00 watts/m^2
09:49 69.0°F 66.0°F 30.27in 17.0mph 93% 0.00in 230.00 watts/m^2
09:54 69.0°F 66.0°F 30.28in 21.0mph 93% 0.00in 260.00 watts/m^2
09:59 70.0°F 68.0°F 30.27in 20.0mph 93% 0.00in 210.00 watts/m^2
10:04 70.0°F 68.0°F 30.27in 17.0mph 93% 0.00in 260.00 watts/m^2
10:09 70.0°F 68.0°F 30.27in 17.0mph 93% 0.00in 290.00 watts/m^2
10:14 71.0°F 68.0°F 30.27in 17.0mph 92% 0.00in 640.00 watts/m^2
10:19 71.0°F 68.0°F 30.27in 21.0mph 92% 0.00in 420.00 watts/m^2
10:24 72.0°F 69.0°F 30.27in 19.0mph 90% 0.00in 290.00 watts/m^2
10:29 72.0°F 68.0°F 30.27in 18.0mph 88% 0.00in 290.00 watts/m^2
10:34 73.0°F 69.0°F 30.27in 22.0mph 87% 0.00in 610.00 watts/m^2
10:39 73.0°F 69.0°F 30.27in 21.0mph 86% 0.00in 590.00 watts/m^2
10:44 73.0°F 69.0°F 30.27in 20.0mph 86% 0.00in 590.00 watts/m^2
10:49 74.0°F 69.0°F 30.27in 21.0mph 84% 0.00in 110.00 watts/m^2
10:53 74.0°F 69.0°F 30.27in 21.0mph 83% 0.00in 680.00 watts/m^2
10:59 75.0°F 69.0°F 30.27in 17.0mph 82% 0.00in 580.00 watts/m^2
11:04 75.0°F 69.0°F 30.27in 21.0mph 81% 0.00in 690.00 watts/m^2
11:09 76.0°F 69.0°F 30.27in 22.0mph 79% 0.00in 730.00 watts/m^2
11:14 76.0°F 69.0°F 30.27in 18.0mph 79% 0.00in 250.00 watts/m^2
11:19 77.0°F 69.0°F 30.27in 19.0mph 78% 0.00in 470.00 watts/m^2
11:24 77.0°F 69.0°F 30.27in 19.0mph 76% 0.00in 230.00 watts/m^2
11:29 77.0°F 69.0°F 30.26in 18.0mph 75% 0.00in 100.00 watts/m^2
11:34 76.0°F 67.0°F 30.26in 19.0mph 75% 0.00in 140.00 watts/m^2
11:39 75.0°F 67.0°F 30.26in 20.0mph 77% 0.00in 190.00 watts/m^2
11:44 74.0°F 66.0°F 30.26in 22.0mph 78% 0.00in 180.00 watts/m^2
11:49 73.0°F 66.0°F 30.26in 18.0mph 80% 0.00in 310.00 watts/m^2
11:54 73.0°F 66.0°F 30.27in 19.0mph 80% 0.00in 610.00 watts/m^2
11:59 73.0°F 66.0°F 30.26in 19.0mph 81% 0.00in 220.00 watts/m^2
12:04 74.0°F 67.0°F 30.26in 19.0mph 80% 0.00in 130.00 watts/m^2
12:09 73.0°F 66.0°F 30.26in 16.0mph 80% 0.00in 90.00 watts/m^2
12:14 73.0°F 66.0°F 30.26in 16.0mph 80% 0.00in 90.00 watts/m^2
12:19 73.0°F 66.0°F 30.26in 17.0mph 80% 0.00in 140.00 watts/m^2
12:24 72.0°F 65.0°F 30.25in 15.0mph 80% 0.00in 180.00 watts/m^2
12:29 72.0°F 66.0°F 30.26in 17.0mph 81% 0.00in 160.00 watts/m^2
12:34 72.0°F 66.0°F 30.26in 18.0mph 82% 0.00in 130.00 watts/m^2
12:39 71.0°F 65.0°F 30.25in 19.0mph 82% 0.00in 110.00 watts/m^2
12:44 71.0°F 65.0°F 30.26in 15.0mph 83% 0.00in 100.00 watts/m^2
12:49 71.0°F 66.0°F 30.25in 14.0mph 84% 0.00in 80.00 watts/m^2
12:54 70.0°F 65.0°F 30.25in 16.0mph 85% 0.00in 90.00 watts/m^2
12:59 70.0°F 66.0°F 30.26in 18.0mph 86% 0.00in 120.00 watts/m^2
13:04 70.0°F 66.0°F 30.25in 16.0mph 87% 0.00in 120.00 watts/m^2
13:09 70.0°F 66.0°F 30.25in 14.0mph 87% 0.00in 140.00 watts/m^2
13:14 70.0°F 66.0°F 30.24in 17.0mph 88% 0.00in 150.00 watts/m^2
13:19 70.0°F 66.0°F 30.24in 15.0mph 88% 0.00in 220.00 watts/m^2
13:24 70.0°F 66.0°F 30.24in 15.0mph 87% 0.00in 260.00 watts/m^2
13:29 71.0°F 66.0°F 30.24in 15.0mph 86% 0.00in 170.00 watts/m^2
13:34 71.0°F 66.0°F 30.24in 16.0mph 86% 0.00in 260.00 watts/m^2
13:39 72.0°F 66.0°F 30.24in 21.0mph 84% 0.00in 270.00 watts/m^2
13:44 72.0°F 66.0°F 30.24in 16.0mph 84% 0.00in 230.00 watts/m^2
13:49 72.0°F 66.0°F 30.24in 20.0mph 83% 0.00in 300.00 watts/m^2
13:54 72.0°F 66.0°F 30.24in 19.0mph 82% 0.00in 220.00 watts/m^2
13:59 72.0°F 66.0°F 30.24in 16.0mph 82% 0.00in 130.00 watts/m^2
14:04 72.0°F 66.0°F 30.24in 16.0mph 82% 0.00in 100.00 watts/m^2
14:09 72.0°F 66.0°F 30.24in 16.0mph 81% 0.00in 80.00 watts/m^2
14:13 72.0°F 66.0°F 30.24in 18.0mph 81% 0.00in 70.00 watts/m^2
14:19 71.0°F 65.0°F 30.24in 20.0mph 81% 0.00in 80.00 watts/m^2
14:24 71.0°F 65.0°F 30.24in 19.0mph 81% 0.00in 90.00 watts/m^2
14:29 71.0°F 65.0°F 30.24in 16.0mph 81% 0.00in 70.00 watts/m^2
14:34 71.0°F 65.0°F 30.24in 15.0mph 81% 0.00in 50.00 watts/m^2
14:39 71.0°F 65.0°F 30.24in 13.0mph 81% 0.00in 50.00 watts/m^2
14:44 71.0°F 65.0°F 30.24in 16.0mph 81% 0.00in 60.00 watts/m^2
14:49 71.0°F 65.0°F 30.25in 14.0mph 81% 0.00in 60.00 watts/m^2
14:54 71.0°F 65.0°F 30.25in 17.0mph 81% 0.00in 60.00 watts/m^2
14:59 71.0°F 65.0°F 30.25in 15.0mph 81% 0.00in 70.00 watts/m^2
15:04 71.0°F 65.0°F 30.25in 17.0mph 81% 0.00in 110.00 watts/m^2
15:09 71.0°F 65.0°F 30.25in 15.0mph 81% 0.00in 130.00 watts/m^2
15:13 71.0°F 65.0°F 30.25in 15.0mph 81% 0.00in 140.00 watts/m^2
15:19 71.0°F 64.0°F 30.25in 18.0mph 80% 0.00in 160.00 watts/m^2
15:24 72.0°F 65.0°F 30.25in 14.0mph 80% 0.00in 110.00 watts/m^2
15:29 72.0°F 65.0°F 30.25in 15.0mph 80% 0.00in 110.00 watts/m^2
15:34 72.0°F 65.0°F 30.25in 15.0mph 79% 0.00in 90.00 watts/m^2
15:39 72.0°F 65.0°F 30.25in 14.0mph 79% 0.00in 100.00 watts/m^2
15:44 72.0°F 65.0°F 30.25in 17.0mph 78% 0.00in 110.00 watts/m^2
15:49 72.0°F 65.0°F 30.25in 19.0mph 78% 0.00in 120.00 watts/m^2
15:54 72.0°F 65.0°F 30.25in 16.0mph 78% 0.00in 110.00 watts/m^2
15:59 72.0°F 65.0°F 30.25in 18.0mph 78% 0.00in 80.00 watts/m^2
16:04 72.0°F 65.0°F 30.25in 19.0mph 78% 0.00in 100.00 watts/m^2
16:09 72.0°F 64.0°F 30.25in 22.0mph 77% 0.00in 70.00 watts/m^2
16:14 72.0°F 64.0°F 30.26in 17.0mph 77% 0.00in 60.00 watts/m^2
16:19 71.0°F 63.0°F 30.26in 17.0mph 77% 0.00in 90.00 watts/m^2
16:24 71.0°F 63.0°F 30.26in 17.0mph 78% 0.00in 90.00 watts/m^2
16:29 71.0°F 63.0°F 30.26in 14.0mph 78% 0.00in 50.00 watts/m^2
16:34 71.0°F 63.0°F 30.26in 19.0mph 78% 0.00in 130.00 watts/m^2
16:39 71.0°F 63.0°F 30.26in 17.0mph 77% 0.00in 130.00 watts/m^2
16:44 71.0°F 63.0°F 30.26in 20.0mph 77% 0.00in 100.00 watts/m^2
16:49 72.0°F 64.0°F 30.26in 15.0mph 77% 0.00in 40.00 watts/m^2
16:54 72.0°F 64.0°F 30.26in 14.0mph 77% 0.00in 40.00 watts/m^2
16:59 71.0°F 63.0°F 30.26in 15.0mph 77% 0.00in 20.00 watts/m^2
17:04 71.0°F 63.0°F 30.27in 15.0mph 77% 0.00in 10.00 watts/m^2
17:09 71.0°F 63.0°F 30.26in 16.0mph 77% 0.00in 10.00 watts/m^2
17:14 70.0°F 63.0°F 30.27in 14.0mph 78% 0.00in 0.00 watts/m^2
17:19 70.0°F 63.0°F 30.27in 17.0mph 78% 0.00in 0.00 watts/m^2
17:24 70.0°F 63.0°F 30.27in 18.0mph 79% 0.00in 0.00 watts/m^2
17:29 70.0°F 63.0°F 30.27in 13.0mph 79% 0.00in 0.00 watts/m^2
17:34 70.0°F 63.0°F 30.27in 18.0mph 79% 0.00in 0.00 watts/m^2
17:39 70.0°F 63.0°F 30.27in 15.0mph 79% 0.00in 0.00 watts/m^2
17:44 70.0°F 63.0°F 30.27in 14.0mph 79% 0.00in 0.00 watts/m^2
17:49 70.0°F 63.0°F 30.27in 15.0mph 79% 0.00in 0.00 watts/m^2
17:54 70.0°F 63.0°F 30.27in 14.0mph 79% 0.00in 0.00 watts/m^2
17:59 70.0°F 63.0°F 30.27in 14.0mph 79% 0.00in 0.00 watts/m^2
18:04 70.0°F 63.0°F 30.28in 19.0mph 78% 0.00in 0.00 watts/m^2
18:09 70.0°F 63.0°F 30.28in 17.0mph 78% 0.00in 0.00 watts/m^2
18:14 70.0°F 63.0°F 30.27in 13.0mph 78% 0.00in 0.00 watts/m^2
18:19 70.0°F 63.0°F 30.28in 14.0mph 78% 0.00in 0.00 watts/m^2
18:24 70.0°F 63.0°F 30.28in 15.0mph 78% 0.00in 0.00 watts/m^2
18:29 70.0°F 63.0°F 30.27in 18.0mph 78% 0.00in 0.00 watts/m^2
18:34 69.0°F 61.0°F 30.28in 14.0mph 78% 0.00in 0.00 watts/m^2
18:39 69.0°F 61.0°F 30.28in 14.0mph 78% 0.00in 0.00 watts/m^2
18:44 69.0°F 62.0°F 30.28in 13.0mph 79% 0.00in 0.00 watts/m^2
18:49 69.0°F 62.0°F 30.28in 16.0mph 79% 0.00in 0.00 watts/m^2
18:54 69.0°F 62.0°F 30.28in 12.0mph 79% 0.00in 0.00 watts/m^2
18:59 69.0°F 62.0°F 30.29in 15.0mph 79% 0.00in 0.00 watts/m^2
19:04 69.0°F 62.0°F 30.28in 15.0mph 79% 0.00in 0.00 watts/m^2
19:09 69.0°F 62.0°F 30.28in 14.0mph 79% 0.00in 0.00 watts/m^2
19:14 69.0°F 62.0°F 30.29in 12.0mph 79% 0.00in 0.00 watts/m^2
19:19 69.0°F 62.0°F 30.29in 16.0mph 79% 0.00in 0.00 watts/m^2
19:24 69.0°F 62.0°F 30.29in 13.0mph 79% 0.00in 0.00 watts/m^2
19:29 69.0°F 62.0°F 30.29in 15.0mph 79% 0.00in 0.00 watts/m^2
19:34 69.0°F 62.0°F 30.30in 13.0mph 79% 0.00in 0.00 watts/m^2
19:39 69.0°F 62.0°F 30.29in 12.0mph 79% 0.00in 0.00 watts/m^2
19:44 69.0°F 62.0°F 30.30in 15.0mph 79% 0.00in 0.00 watts/m^2
19:49 69.0°F 62.0°F 30.30in 14.0mph 79% 0.00in 0.00 watts/m^2
19:54 69.0°F 62.0°F 30.30in 13.0mph 79% 0.00in 0.00 watts/m^2
19:59 69.0°F 62.0°F 30.30in 14.0mph 79% 0.00in 0.00 watts/m^2
20:04 69.0°F 62.0°F 30.30in 13.0mph 79% 0.00in 0.00 watts/m^2
20:09 69.0°F 62.0°F 30.30in 15.0mph 79% 0.00in 0.00 watts/m^2
20:14 69.0°F 62.0°F 30.30in 11.0mph 79% 0.00in 0.00 watts/m^2
20:19 69.0°F 62.0°F 30.31in 12.0mph 79% 0.00in 0.00 watts/m^2
20:24 69.0°F 62.0°F 30.31in 13.0mph 79% 0.00in 0.00 watts/m^2
20:29 69.0°F 61.0°F 30.31in 12.0mph 78% 0.00in 0.00 watts/m^2
20:34 69.0°F 61.0°F 30.31in 15.0mph 78% 0.00in 0.00 watts/m^2
20:39 69.0°F 61.0°F 30.32in 16.0mph 78% 0.00in 0.00 watts/m^2
20:44 69.0°F 61.0°F 30.32in 14.0mph 78% 0.00in 0.00 watts/m^2
20:49 69.0°F 61.0°F 30.32in 11.0mph 78% 0.00in 0.00 watts/m^2
20:54 68.0°F 61.0°F 30.33in 14.0mph 78% 0.00in 0.00 watts/m^2
20:59 68.0°F 61.0°F 30.33in 19.0mph 78% 0.00in 0.00 watts/m^2
21:04 68.0°F 61.0°F 30.33in 16.0mph 78% 0.00in 0.00 watts/m^2
21:09 68.0°F 61.0°F 30.34in 13.0mph 78% 0.00in 0.00 watts/m^2
21:14 69.0°F 61.0°F 30.34in 16.0mph 78% 0.00in 0.00 watts/m^2
21:19 69.0°F 61.0°F 30.34in 13.0mph 77% 0.00in 0.00 watts/m^2
21:24 69.0°F 61.0°F 30.35in 17.0mph 77% 0.00in 0.00 watts/m^2
21:29 69.0°F 61.0°F 30.35in 14.0mph 77% 0.00in 0.00 watts/m^2
21:34 69.0°F 61.0°F 30.35in 18.0mph 78% 0.00in 0.00 watts/m^2
21:39 69.0°F 61.0°F 30.35in 16.0mph 78% 0.00in 0.00 watts/m^2
21:44 69.0°F 61.0°F 30.35in 16.0mph 77% 0.00in 0.00 watts/m^2
21:49 69.0°F 61.0°F 30.35in 16.0mph 77% 0.00in 0.00 watts/m^2
21:54 69.0°F 61.0°F 30.35in 15.0mph 76% 0.00in 0.00 watts/m^2
21:59 69.0°F 61.0°F 30.35in 16.0mph 76% 0.00in 0.00 watts/m^2
22:04 69.0°F 61.0°F 30.35in 16.0mph 76% 0.00in 0.00 watts/m^2
22:09 69.0°F 61.0°F 30.35in 13.0mph 76% 0.00in 0.00 watts/m^2
22:14 69.0°F 61.0°F 30.35in 17.0mph 77% 0.00in 0.00 watts/m^2
22:19 69.0°F 61.0°F 30.35in 16.0mph 76% 0.00in 0.00 watts/m^2
22:24 69.0°F 61.0°F 30.35in 15.0mph 76% 0.00in 0.00 watts/m^2
22:29 69.0°F 61.0°F 30.35in 12.0mph 76% 0.00in 0.00 watts/m^2
22:34 69.0°F 61.0°F 30.35in 14.0mph 76% 0.00in 0.00 watts/m^2
22:39 69.0°F 60.0°F 30.35in 18.0mph 75% 0.00in 0.00 watts/m^2
Comma Delimited File
Powered by Weather Underground, Inc.